Flag for Romania Weather past 2 weeks in Târgu Mureş, Romania

Now
64 °F

Sunny.


Feels Like: 64 °F
Forecast: 58 / 87 °F
Wind: 6 mph from East

Location: Tirgu Mures Airport

Current Time: Sep 2, 2015 at 8:25:54 AM

Latest Report: Sep 2, 2015 at 8:00 AM


Visibility: 10 mi

Pressure: 29.95 "Hg

Humidity: 83%

Dew point: 59 °F

Location of Târgu MureşLocation

Historic Weather in Târgu Mureş — Graph

°F

Târgu Mureş temperature yesterday

Maximum temperature yesterday: 95 °F (at 4:30 PM)
Minimum temperature yesterday: 59 °F (at 6:30 AM)
Average temperature yesterday: 79 °F

Past Weeks' High & Low Weather Summary

 TemperatureHumidityPressure
High95 °F (Sep 1, 4:30 PM)100% (Aug 18, 6:00 AM)30.27 "Hg (Aug 18, 6:00 AM)
Low50 °F (Aug 24, 5:00 AM)25% (Sep 1, 4:30 PM)29.86 "Hg (Aug 18, 6:00 AM)
Average70 °F69%30.11 "Hg
* Reported Aug 18 6:00 AM — Sep 2 6:30 AM, Târgu Mureş, Weather by CustomWeather, © 2015

Note: Actual official high and low records may vary slightly from our data, if they occured in-between our weather recording intervals... More about our weather records

Advertising

Târgu Mureş weather history for previous 24 hours

 ConditionsComfort  
Time TempWeatherWind HumidityBarometerVisibility
6:30 AM
Wed, Sep 2
61 °FClear.6 mph88%29.92 "Hg10 mi
6:00 AM61 °FClear.6 mph94%29.92 "Hg10 mi
5:30 AM63 °FClear.6 mph83%29.92 "Hg10 mi
5:00 AM63 °FClear.7 mph88%29.92 "Hg10 mi
4:00 AM64 °FClear.7 mph83%29.92 "Hg10 mi
3:00 AM64 °FClear.7 mph83%29.92 "Hg10 mi
2:00 AM64 °FClear.6 mph83%29.92 "Hg10 mi
12:00 AM70 °FClear.8 mph73%29.92 "Hg10 mi
11:00 PM
Tue, Sep 1
70 °FPassing clouds.5 mph73%29.92 "HgN/A
10:00 PM73 °FClear.1 mph69%29.92 "Hg10 mi
9:00 PM75 °FSunny.2 mph65%29.89 "Hg10 mi
8:30 PM81 °FSunny.7 mph45%29.89 "Hg10 mi
8:00 PM81 °FSunny.5 mph51%29.89 "Hg10 mi
7:30 PM84 °FPassing clouds.5 mph43%29.89 "HgN/A
7:00 PM88 °FPassing clouds.3 mph38%29.89 "HgN/A
6:30 PM91 °FPassing clouds.2 mph32%29.89 "HgN/A
6:00 PM93 °FPassing clouds.No wind28%29.92 "HgN/A
5:30 PM95 °FPassing clouds.2 mph26%29.92 "HgN/A
5:00 PM93 °FSunny.3 mph26%29.92 "Hg10 mi
4:30 PM95 °FPassing clouds.3 mph25%29.92 "HgN/A
4:00 PM93 °FPassing clouds.5 mph28%29.95 "HgN/A
3:30 PM93 °FPassing clouds.5 mph26%29.95 "HgN/A
3:00 PM93 °FPassing clouds.2 mph30%29.95 "HgN/A
2:30 PM93 °FPassing clouds.6 mph30%29.98 "HgN/A
2:00 PM91 °FPassing clouds.3 mph32%29.98 "HgN/A
1:30 PM91 °FPassing clouds.5 mph32%29.98 "HgN/A
1:00 PM90 °FPassing clouds.5 mph36%29.98 "HgN/A
12:30 PM90 °FPassing clouds.3 mph36%30.01 "HgN/A
12:00 PM86 °FPassing clouds.5 mph49%30.01 "HgN/A
11:30 AM84 °FPassing clouds.3 mph51%30.04 "HgN/A
11:00 AM82 °FPassing clouds.3 mph51%30.04 "HgN/A
10:30 AM79 °FPassing clouds.3 mph58%30.04 "HgN/A
10:00 AM75 °FPassing clouds.5 mph65%30.04 "Hg5 mi
9:30 AM72 °FPassing clouds.6 mph69%30.04 "Hg5 mi
9:00 AM68 °FPassing clouds.6 mph78%30.04 "Hg4 mi
8:30 AM64 °FPassing clouds.7 mph88%30.04 "Hg4 mi
8:00 AM63 °FPassing clouds.7 mph88%30.04 "Hg4 mi
Weather by CustomWeather, © 2015

See weather overviewHow to use our weather pages